Regional Weather Roundup
Issued by NWS

Home | Current Version | Previous Version | Text Only | Print | Product List | Glossary Off
Versions: 1 2 3 4 5 6 7 8 9 10 11 12 13 14 15 16 17 18 19 20 21 22 23 24 25 26 27 28 29 30 31 32 33 34 35 36 37 38 39 40 41 42 43 44 45 46 47 48 49 50

000
ASUS43 KMKX 022311
RWRWI

WISCONSIN REGIONAL WEATHER ROUNDUP
NATIONAL WEATHER SERVICE MILWAUKEE/SULLIVAN WI
500 PM CST FRI DEC 02 2016

NOTE: "FAIR" INDICATES FEW OR NO CLOUDS BELOW 12,000 FEET WITH NO
SIGNIFICANT WEATHER AND/OR OBSTRUCTIONS TO VISIBILITY.

WIZ001-002-006>008-014>016-023>028-030000-
NORTHWEST WISCONSIN

CITY           SKY/WX    TMP DP  RH WIND       PRES   REMARKS
SUPERIOR ARPT  CLOUDY    30  24  79 CALM      30.24F
ASHLAND        CLOUDY    30  24  78 VRB6      30.24S WCI  24
HAYWARD        CLOUDY    28  21  75 CALM      30.23R
SIREN          CLOUDY    30  23  76 W3        30.26R
CUMBERLAND     CLOUDY    28  23  80 W6        30.24R WCI  22
RICE LAKE      CLOUDY    30  24  77 W7        30.26R WCI  24
CHETEK         CLOUDY    30  24  77 CALM      30.25R
LADYSMITH      CLOUDY    31  25  77 W7        30.24R WCI  24
EAU CLAIRE     CLOUDY    32  24  72 W7        30.25R WCI  26
MENOMONIE      CLOUDY    32  25  74 W7        30.26R WCI  26
NEW RICHMOND   CLOUDY    31  25  77 W6        30.27R WCI  25
OSCEOLA        CLOUDY    31  26  80 NW6       30.30R WCI  25
$$

WIZ003>005-009-010-017-018-030000-
NORTH CENTRAL WISCONSIN

CITY           SKY/WX    TMP DP  RH WIND       PRES   REMARKS
MANITOWISH WTR CLOUDY    28  28 100 CALM      30.17S
ARBOR VITAE    CLOUDY    32  28  87 CALM      30.17S
WOODRUFF       CLOUDY    32  28  87 CALM      30.17S
RHINELANDER    CLOUDY    31  27  85 W5        30.18S WCI  26
EAGLE RIVER    CLOUDY    30  26  87 NW5       30.16S WCI  25
LAND O LAKES   CLOUDY    30  28  91 W5        30.18S WCI  25
PHILLIPS       CLOUDY    28  26  89 CALM      30.19R
TOMAHAWK       CLOUDY    30  25  82 NW3       30.19S
MEDFORD        CLOUDY    29  23  78 NW3       30.19R
MERRILL        CLOUDY    31  26  80 CALM      30.21R
$$

WIZ029-030-035-036-043>047-030000-
CENTRAL WISCONSIN

CITY           SKY/WX    TMP DP  RH WIND       PRES   REMARKS
WAUSAU         CLOUDY    31  23  72 N7        30.19R WCI  24
MOSINEE        CLOUDY    30  27  86 N6        30.21R WCI  24
MARSHFIELD     CLOUDY    30  21  69 N9        30.21R WCI  22
STEVENS POINT  CLOUDY    30  23  74 W5        30.22R WCI  25
WAUPACA        CLOUDY    34  25  70 CALM      30.23R
WAUTOMA        CLOUDY    32  24  72 W7        30.25R WCI  26
WISC RAPIDS    CLOUDY    31  23  72 W6        30.24R WCI  25
CAMP DOUGLAS   CLOUDY    31  23  72 NW9       30.26R WCI  23
$$

WIZ011>013-019>022-031-037>040-048>050-030000-
NORTHEAST WISCONSIN

CITY           SKY/WX    TMP DP  RH WIND       PRES   REMARKS
ANTIGO         CLOUDY    31  25  80 NW6       30.17S WCI  25
SHAWANO        CLOUDY    36  27  69 NW3       30.20S
OCONTO         CLOUDY    36  27  71 W6        30.19R WCI  31
STURGEON BAY   CLOUDY    37  28  70 W7        30.19R WCI  32
GREEN BAY      CLOUDY    36  28  73 W8        30.20S WCI  30
MANITOWOC      CLOUDY    35  26  69 W8        30.22R WCI  29
APPLETON       CLOUDY    32  25  74 W6        30.20R WCI  26
CLINTONVILLE   CLOUDY    34  25  69 W6        30.21R WCI  29
OSHKOSH        CLOUDY    32  24  72 W7        30.22R WCI  26
$$

WIZ032>034-041-042-053>061-030000-
SOUTHWEST WISCONSIN

CITY           SKY/WX    TMP DP  RH WIND       PRES   REMARKS
LA CROSSE      CLOUDY    35  23  61 W6        30.28R WCI  30
SPARTA         CLOUDY    32  24  72 CALM      30.27S
VIROQUA        CLOUDY    30  25  79 NW7       30.25R WCI  23
BOSCOBEL       CLOUDY    35  23  61 W6        30.29R WCI  30
PRAIRIE DU CHI CLOUDY    33  22  64 W6        30.29S WCI  27
PLATTEVILLE    CLOUDY    32  26  78 NW8       30.26S WCI  25
$$

WIZ056-057-062-063-064-067-068-030000-
SOUTH CENTRAL WISCONSIN

CITY           SKY/WX    TMP DP  RH WIND       PRES   REMARKS
REEDSBURG      CLOUDY    31  23  71 CALM      30.26R
BARABOO/DELLS  CLOUDY    31  23  71 W7        30.25R WCI  24
LONE ROCK      CLOUDY    33  23  66 NW7       30.28R WCI  27
MINERAL POINT  CLOUDY    32  28  86 W10       30.25S WCI  24
MADISON        CLOUDY    32  22  66 NW7       30.26R WCI  26
MIDDLETON      CLOUDY    33  25  73 NW7       30.26R WCI  27
WATERTOWN      CLOUDY    32  24  73 W7        30.25R WCI  26
MONROE         CLOUDY    32  27  80 W9        30.25R WCI  24
JANESVILLE     CLOUDY    34  27  75 NW6       30.25R WCI  29
$$

WIZ051-052-058>065-066-070>072-030000-
SOUTHEAST WISCONSIN

CITY           SKY/WX    TMP DP  RH WIND       PRES   REMARKS
MILWAUKEE      CLOUDY    35  23  61 NW7       30.24R WCI  29
WAUKESHA       CLOUDY    30  23  74 NW8       30.25R WCI  23
MILWAUKEE/TIMM CLOUDY    34  21  60 NW6       30.25R WCI  29
RACINE         CLOUDY    35  23  61 W7        30.26R WCI  29
BURLINGTON     CLOUDY    33  25  72 CALM      30.25R
KENOSHA        CLOUDY    34  23  64 NW8       30.25R WCI  27
FOND DU LAC    CLOUDY    33  23  66 W8        30.24R WCI  26
SHEBOYGAN      CLOUDY    34  25  69 W6        30.22R WCI  29
WEST BEND      CLOUDY    32  27  80 NW5       30.23R WCI  27
JUNEAU         CLOUDY    32  24  74 W6        30.25R WCI  26
$$

LSZ147-162-030000-
LAKE SUPERIOR

STATION/POSITION TIME  TEMP    WIND        PRES    WAVE
                       AIR SEA DIR/SP/G            HT/PER
                 (UTC) (F)     (DEG/KT/KT) (MB)    (FT/S)
DEVILS ISLAND    2300   33     240/ 11/ 13 1024.1S
PORT WING        2230   32     260/  7/ 12 1024.0S
SAXON HARBOR     2240   32     240/  4/  4 1023.4S
$$

LMZ867-665-643>646-030000-
LAKE MICHIGAN

STATION/POSITION TIME  TEMP    WIND        PRES    WAVE
                       AIR SEA DIR/SP/G            HT/PER
                 (UTC) (F)     (DEG/KT/KT) (MB)    (FT/S)
CHAMBERS ISLAND  2240   38     270/  6/ 10 1021.3R
NORTHPORT PIER   2240   38     300/  7/ 12 1021.3R
SISTER BAY       2108   38     320/ 15/ 17   N/A
ALGOMA LAKESHORE 2121          320/  9/ 12   N/A
KEWAUNEE LAKESHO 2118   36     300/  6/  9 1021.4
SHEBOYGAN LAKESH 2300   35     270/  7/  8 1024.0R
PORT WASHINGTON  2240   34     290/  6/ 11 1024.7R
MILWAUKEE LAKESH 2120   35     320/  6/  8   N/A
S MID LAKE BUOY  2250   38 49  300/ 10/ 14 1023.6R   3/ 5
KENOSHA   LAKESH 2300   35     300/  8/ 10 1024.4
$$

TC  - TEMPERATURE IN CELSIUS
VSB - VISIBILITY IN STATUTE MILES
WCI - WIND CHILL INDEX
HX  - HEAT INDEX





USA.gov is the U.S. government's official web portal to all federal, state and local government web resources and services.